Tracking 30116 objects as of 10-Feb-2025
HD Live streaming from Space Station
objects crossing your sky now

STARLINK-11413

Track STARLINK-11413 now!
10-day predictions
STARLINK-11413 is classified as:


NORAD ID: 62593
Int'l Code: 2025-008G
Perigee: 342.9 km
Apogee: 344.4 km
Inclination: 43.0 °
Period: 91.3 minutes
Semi major axis: 6714 km
RCS: Unknown
Launch date: January 13, 2025
Source: United States (US)
Launch site: AIR FORCE EASTERN TEST RANGE (AFETR)
Your satellite tracking list
Your tracking list is empty




NASA's NSSDC Master Catalog

Two Line Element Set (TLE):
1 62593U 25008G   25041.49155344  .00003616  00000-0  23617-4 0  9996
2 62593  42.9987 331.8331 0001113 292.0144  68.0608 15.77873206  5487
Source of the keplerian elements: AFSPC